Flight Track Log - Related Links

Times and Time Zones

All times are in EDT time to prevent confusion due to time zone crossing. See the N319EE flight status page for this flight to view local times or setup timezone preferences in your user account.


Time Position Orientation Groundspeed Altitude Reporting Facility
EDT Latitude Longitude Course Direction KTS MPH feet Rate Location/Type
Mon 10:03:17 PM 43.1414 -77.5922 69° East 187 215 2,700  Level Cleveland Center
Mon 10:03:35 PM 43.1411 -77.5856 93° East 184 212 3,000 2,354 Climbing Cleveland Center
Mon 10:04:36 PM 43.1425 -77.4981 89° East 190 219 5,800 2,508 Climbing Cleveland Center
Mon 10:05:37 PM 43.1425 -77.4278 90° East 187 215 8,100 2,146 Climbing Cleveland Center
Mon 10:06:39 PM 43.1444 -77.3542 88° East 190 219 10,200 1,902 Climbing Cleveland Center
Mon 10:07:40 PM 43.1642 -77.2853 69° East 196 226 12,000 1,820 Climbing Cleveland Center
Mon 10:08:41 PM 43.1856 -77.2119 68° East 205 236 13,900 1,918 Climbing Cleveland Center
Mon 10:09:42 PM 43.2064 -77.1364 69° East 212 244 15,900 1,805 Climbing Cleveland Center
Mon 10:10:44 PM 43.2275 -77.0625 69° East 209 241 17,600 1,463 Climbing Cleveland Center
Mon 10:11:45 PM 43.2381 -76.9806 80° East 204 235 18,900 1,180 Climbing Cleveland Center
Mon 10:12:46 PM 43.2439 -76.9019 84° East 207 238 20,000 1,033 Climbing Cleveland Center
Mon 10:13:47 PM 43.2517 -76.8197 83° East 215 247 21,000 488 Climbing Cleveland Center
Mon 10:14:49 PM 43.2594 -76.7267 83° East 241 277 21,000  Level Cleveland Center
Mon 10:15:50 PM 43.2697 -76.6233 82° East 272 313 21,000  Level Cleveland Center
Mon 10:16:51 PM 43.2789 -76.5181 83° East 278 320 21,000  Level Cleveland Center
Mon 10:17:52 PM 43.2889 -76.4139 82° East 276 318 21,000  Level Cleveland Center
Mon 10:18:54 PM 43.2992 -76.2894 83° East 274 315 21,000  Level Cleveland Center
Mon 10:19:55 PM 43.3072 -76.1858 84° East 275 316 21,000  Level Cleveland Center
Mon 10:20:51 PM 43.3158 -76.1044 82° East 273 314 21,000  Level Boston Center
Mon 10:21:53 PM 43.3239 -75.9992 84° East 275 316 21,000  Level Boston Center
Mon 10:22:54 PM 43.3347 -75.8744 83° East 275 316 21,000  Level Boston Center
Mon 10:23:54 PM 43.3425 -75.7706 84° East 273 314 21,000  Level Boston Center
Mon 10:24:54 PM 43.3508 -75.6656 84° East 277 319 21,000  Level Boston Center
Mon 10:25:55 PM 43.3586 -75.5625 84° East 271 312 21,000  Level Boston Center
Mon 10:26:56 PM 43.3669 -75.4592 84° East 272 313 21,000  Level Boston Center
Mon 10:27:59 PM 43.3753 -75.3544 84° East 274 315 21,000  Level Boston Center
Mon 10:28:57 PM 43.3856 -75.2422 83° East 292 336 21,000  Level Boston Center
Mon 10:30:00 PM 43.3911 -75.1342 86° East 278 320 21,000  Level Boston Center
Mon 10:30:59 PM 43.3978 -75.0306 85° East 274 315 21,000  Level Boston Center
Mon 10:31:59 PM 43.4050 -74.9261 85° East 274 315 21,000  Level Boston Center
Mon 10:33:02 PM 43.4125 -74.8225 84° East 275 316 21,000  Level Boston Center
Mon 10:34:00 PM 43.4203 -74.7178 84° East 276 318 21,000  Level Boston Center
Mon 10:35:03 PM 43.4275 -74.6142 84° East 274 315 21,000  Level Boston Center
Mon 10:36:03 PM 43.4342 -74.5094 85° East 274 315 21,000  Level Boston Center
Mon 10:37:03 PM 43.4419 -74.4069 84° East 272 313 21,000  Level Boston Center
Mon 10:38:03 PM 43.4483 -74.3022 85° East 275 316 21,000  Level Boston Center
Mon 10:39:04 PM 43.4561 -74.1986 84° East 274 315 21,000  Level Boston Center
Mon 10:40:07 PM 43.4628 -74.0947 85° East 276 318 21,000  Level Boston Center
Mon 10:41:05 PM 43.4692 -73.9906 85° East 276 318 21,000  Level Boston Center
Mon 10:42:06 PM 43.4769 -73.8836 84° East 280 322 21,000  Level Boston Center
Mon 10:43:09 PM 43.4831 -73.7769 85° East 281 323 21,000  Level Boston Center
Mon 10:44:09 PM 43.4906 -73.6714 84° East 279 321 21,000  Level Boston Center
Mon 10:45:10 PM 43.4967 -73.5642 85° East 281 323 21,000  Level Boston Center
Mon 10:46:11 PM 43.5039 -73.4358 86° East 282 325 21,000  Level Boston Center
Mon 10:47:09 PM 43.5100 -73.3306 85° East 279 321 21,000  Level Boston Center
Mon 10:48:10 PM 43.5164 -73.2239 85° East 281 323 21,000  Level Boston Center
Mon 10:49:10 PM 43.5225 -73.1183 85° East 279 321 21,000  Level Boston Center
Mon 10:50:11 PM 43.5286 -73.0114 85° East 280 322 21,000  Level Boston Center
Mon 10:51:14 PM 43.5344 -72.9186 85° East 281 323 21,000  Level Boston Center
Mon 10:52:13 PM 43.5400 -72.8108 86° East 282 325 21,000  Level Boston Center
Mon 10:53:16 PM 43.5453 -72.7039 86° East 281 323 21,000  Level Boston Center
Mon 10:54:17 PM 43.5511 -72.5956 86° East 282 325 21,000  Level Boston Center
Mon 10:55:15 PM 43.5578 -72.4658 86° East 283 326 21,000  Level Boston Center
Mon 10:56:17 PM 43.5633 -72.3564 86° East 286 329 21,000  Level Boston Center
Mon 10:57:18 PM 43.5686 -72.2483 86° East 283 326 21,000  Level Boston Center
Mon 10:58:19 PM 43.5744 -72.1381 86° East 288 331 21,000 -492 Level Boston Center
Mon 10:59:20 PM 43.5792 -72.0272 87° East 290 334 20,000 -1,475 Descending Boston Center
Mon 11:00:21 PM 43.5844 -71.8986 87° East 320 368 18,000 -1,686 Descending Boston Center
Mon 11:01:21 PM 43.5900 -71.7736 86° East 328 377 16,600 -1,438 Descending Boston Center
Mon 11:02:22 PM 43.5950 -71.6533 87° East 318 366 15,100 -1,300 Descending Boston Center
Mon 11:03:21 PM 43.6008 -71.5342 86° East 313 360 14,000 -1,131 Descending Boston Center
Mon 11:04:24 PM 43.6069 -71.4111 86° East 302 348 12,800 -1,122 Descending Boston Center
Mon 11:05:24 PM 43.6128 -71.2969 86° East 300 345 11,700 -1,140 Descending Boston Center
Mon 11:06:25 PM 43.6183 -71.1856 86° East 294 338 10,500 -1,190 Descending Boston Center
Mon 11:07:25 PM 43.6236 -71.0753 86° East 291 335 9,300 -1,240 Descending Boston Center
Mon 11:08:26 PM 43.6292 -70.9700 86° East 281 323 8,000 -1,311 Descending Boston Center
Mon 11:09:24 PM 43.6339 -70.8664 86° East 274 315 6,700 -1,311 Descending Boston Center
Mon 11:10:25 PM 43.6397 -70.7558 86° East 273 314 5,400 -1,065 Descending Boston Center
Mon 11:11:28 PM 43.6436 -70.6581 87° East 259 298 4,500 -726 Descending Boston Center
Mon 11:12:29 PM 43.6475 -70.5625 87° East 250 288 3,900 -1,050 Descending Boston Center
Mon 11:13:28 PM 43.6522 -70.4764 86° East 227 261 2,400 -1,250 Descending Boston Center
Mon 11:14:29 PM 43.6511 -70.4094 91° East 177 204 1,400 -850 Descending Boston Center
Mon 11:15:28 PM 43.6483 -70.3561 94° East 143 165 700 -595 Descending Boston Center
Mon 11:16:30 PM 43.6461 -70.3153 94° East 131 151 200 -484 Descending Boston Center
Mon 11:18:00 PM 43.6456 -70.3086 90° East  Level Estimated
Mon 11:25:00 PM 43.6456 -70.3086 90° East  Level Estimated

Login

Don't have an account? Register now (free) for customized features, flight alerts, and more!